Location: Amsterdam
(30.7274°N, 84.4357°W)
Time: 12:31:25
(UTC+00:00)

Courier 1B Rocket - Pass Details

Date: 08 February 2026
Orbit: 920 x 1201 km, 28.2° (Epoch: 17 March)

Event Time Altitude Azimuth Distance (km) Brightness Sun altitude
Rises 08:23:28 0° 274° (W) 3,979 - -51.9°
Reaches altitude 10° 08:26:15 10° 271° (W) 3,050 - -51.3°
Maximum altitude 08:33:44 61° 193° (SSW) 1,330 - -49.8°
Exits shadow 08:39:54 17° 118° (ESE) 2,633 7.5 -48.5°
Drops below altitude 10° 08:41:26 10° 115° (ESE) 3,125 8.0 -48.2°
Sets 08:44:19 0° 112° (ESE) 4,082 8.8 -47.6°
